sat.trackr.live / text

‹ back to catalog

STARLINK-3820

NORAD 52364 · 2022-045AK

PAYLOAD ACTIVE UNKNOWN

§ Identity

Operator
Country
US
Launch date
2022-04-29
Launch site
AFETR
Launch vehicle
Mass (kg)
RCS (m²)

Purposes: comms

External: N2YO · Heavens-Above · Gunter

§ Orbital elements

Epoch: 2026-05-24T21:08:07.276128Z

Period
95.44 min
Inclination
53.2139°
Eccentricity
0.0001237
Mean motion
15.08834107 rev/d
Perigee alt
538.9 km
Apogee alt
540.6 km
Semi-major
6,917.9 km
B*
2.8738e-6
RAAN
207.0009°
Arg perigee
91.9874°
Mean anomaly
268.1260°
Rev number
22,742

§ Raw data

STARLINK-38201 52364U 22045AK  26144.88063977 -.00000242  00000+0  28738-5 0  99992 52364  53.2139 207.0009 0001237  91.9874 268.1260 15.08834107227423

JSON: /api/v1/satellites/52364 · /tle

For live sub-satellite position, see the globe view (requires WebGL).

§ Visibility from observer

Set your observer location to see the next 7 days of passes ≥ 10°. The values pass through the URL so the page stays shareable.

No JS? Fill the form by hand. The geolocation button needs JavaScript.